owner,sensor,date,latitude,longitude,air_temperature,qcFlag 
DISL,ioos:station:DISL:DISL:1,2013-06-01T00:00:00Z,30.2513,-88.0778,25.82,1111122 
DISL,ioos:station:DISL:DISL:1,2013-06-01T00:30:00Z,30.2513,-88.0778,25.71,1111122 
DISL,ioos:station:DISL:DISL:1,2013-06-01T01:00:00Z,30.2513,-88.0778,25.61,1111122 
DISL,ioos:station:DISL:DISL:1,2013-06-01T01:30:00Z,30.2513,-88.0778,25.64,1111122 
DISL,ioos:station:DISL:DISL:1,2013-06-01T02:00:00Z,30.2513,-88.0778,25.51,1111122 
DISL,ioos:station:DISL:DISL:1,2013-06-01T02:30:00Z,30.2513,-88.0778,25.55,1111122 
DISL,ioos:station:DISL:DISL:1,2013-06-01T03:00:00Z,30.2513,-88.0778,25.4,1111122 
DISL,ioos:station:DISL:DISL:1,2013-06-01T03:30:00Z,30.2513,-88.0778,25.37,1111122 
DISL,ioos:station:DISL:DISL:1,2013-06-01T04:00:00Z,30.2513,-88.0778,25.37,1111122 
DISL,ioos:station:DISL:DISL:1,2013-06-01T04:30:00Z,30.2513,-88.0778,25.44,1111122 
DISL,ioos:station:DISL:DISL:1,2013-06-01T05:00:00Z,30.2513,-88.0778,25.4,1111122 
DISL,ioos:station:DISL:DISL:1,2013-06-01T05:30:00Z,30.2513,-88.0778,25.41,1111122 
DISL,ioos:station:DISL:DISL:1,2013-06-01T06:00:00Z,30.2513,-88.0778,25.48,1111122 
DISL,ioos:station:DISL:DISL:1,2013-06-01T06:30:00Z,30.2513,-88.0778,25.58,1111122 
DISL,ioos:station:DISL:DISL:1,2013-06-01T07:00:00Z,30.2513,-88.0778,25.54,1111122 
DISL,ioos:station:DISL:DISL:1,2013-06-01T07:30:00Z,30.2513,-88.0778,25.54,1111122 
DISL,ioos:station:DISL:DISL:1,2013-06-01T08:00:00Z,30.2513,-88.0778,25.68,1111122 
DISL,ioos:station:DISL:DISL:1,2013-06-01T08:30:00Z,30.2513,-88.0778,25.67,1111122 
DISL,ioos:station:DISL:DISL:1,2013-06-01T09:00:00Z,30.2513,-88.0778,25.63,1111122 
DISL,ioos:station:DISL:DISL:1,2013-06-01T09:30:00Z,30.2513,-88.0778,25.66,1111122 
DISL,ioos:station:DISL:DISL:1,2013-06-01T10:00:00Z,30.2513,-88.0778,25.62,1111122 
DISL,ioos:station:DISL:DISL:1,2013-06-01T10:30:00Z,30.2513,-88.0778,25.63,1111122 
DISL,ioos:station:DISL:DISL:1,2013-06-01T11:00:00Z,30.2513,-88.0778,25.7,1111122 
DISL,ioos:station:DISL:DISL:1,2013-06-01T11:30:00Z,30.2513,-88.0778,25.67,1111122 
DISL,ioos:station:DISL:DISL:1,2013-06-01T12:00:00Z,30.2513,-88.0778,25.89,1111122 
DISL,ioos:station:DISL:DISL:1,2013-06-01T12:30:00Z,30.2513,-88.0778,25.96,1111122 
DISL,ioos:station:DISL:DISL:1,2013-06-01T13:00:00Z,30.2513,-88.0778,25.83,1111122 
DISL,ioos:station:DISL:DISL:1,2013-06-01T13:30:00Z,30.2513,-88.0778,26.07,1111122 
DISL,ioos:station:DISL:DISL:1,2013-06-01T14:00:00Z,30.2513,-88.0778,26.16,1111122 
DISL,ioos:station:DISL:DISL:1,2013-06-01T14:30:00Z,30.2513,-88.0778,26.36,1111122 
DISL,ioos:station:DISL:DISL:1,2013-06-01T15:00:00Z,30.2513,-88.0778,26.67,1111122 
DISL,ioos:station:DISL:DISL:1,2013-06-01T15:30:00Z,30.2513,-88.0778,26.75,1111122 
DISL,ioos:station:DISL:DISL:1,2013-06-01T16:00:00Z,30.2513,-88.0778,26.74,1111122 
DISL,ioos:station:DISL:DISL:1,2013-06-01T16:30:00Z,30.2513,-88.0778,26.74,1111122 
DISL,ioos:station:DISL:DISL:1,2013-06-01T17:00:00Z,30.2513,-88.0778,27.19,1111122 
DISL,ioos:station:DISL:DISL:1,2013-06-01T17:30:00Z,30.2513,-88.0778,27.15,1111122 
DISL,ioos:station:DISL:DISL:1,2013-06-01T18:00:00Z,30.2513,-88.0778,27.03,1111122 
DISL,ioos:station:DISL:DISL:1,2013-06-01T18:30:00Z,30.2513,-88.0778,26.62,1111122 
DISL,ioos:station:DISL:DISL:1,2013-06-01T19:00:00Z,30.2513,-88.0778,26.78,1111122 
DISL,ioos:station:DISL:DISL:1,2013-06-01T19:30:00Z,30.2513,-88.0778,27.42,1111122 
DISL,ioos:station:DISL:DISL:1,2013-06-01T20:00:00Z,30.2513,-88.0778,27.2,1111122 
DISL,ioos:station:DISL:DISL:1,2013-06-01T20:30:00Z,30.2513,-88.0778,27.03,1111122 
DISL,ioos:station:DISL:DISL:1,2013-06-01T21:00:00Z,30.2513,-88.0778,26.9,1111122 
DISL,ioos:station:DISL:DISL:1,2013-06-01T21:30:00Z,30.2513,-88.0778,26.96,1111122 
DISL,ioos:station:DISL:DISL:1,2013-06-01T22:00:00Z,30.2513,-88.0778,27.0,1111122 
DISL,ioos:station:DISL:DISL:1,2013-06-01T22:30:00Z,30.2513,-88.0778,27.04,1111122 
DISL,ioos:station:DISL:DISL:1,2013-06-01T23:00:00Z,30.2513,-88.0778,26.54,1111122 
DISL,ioos:station:DISL:DISL:1,2013-06-01T23:30:00Z,30.2513,-88.0778,26.57,1111122 
DISL,ioos:station:DISL:DISL:1,2013-06-02T00:00:00Z,30.2513,-88.0778,26.32,1111122 
DISL,ioos:station:DISL:DISL:1,2013-06-02T00:30:00Z,30.2513,-88.0778,26.18,1111122 
DISL,ioos:station:DISL:DISL:1,2013-06-02T01:00:00Z,30.2513,-88.0778,26.16,1111122 
DISL,ioos:station:DISL:DISL:1,2013-06-02T01:30:00Z,30.2513,-88.0778,26.07,1111122 
DISL,ioos:station:DISL:DISL:1,2013-06-02T02:00:00Z,30.2513,-88.0778,26.03,1111122 
DISL,ioos:station:DISL:DISL:1,2013-06-02T02:30:00Z,30.2513,-88.0778,25.95,1111122 
DISL,ioos:station:DISL:DISL:1,2013-06-02T03:00:00Z,30.2513,-88.0778,25.95,1111122 
DISL,ioos:station:DISL:DISL:1,2013-06-02T03:30:00Z,30.2513,-88.0778,25.88,1111122 
DISL,ioos:station:DISL:DISL:1,2013-06-02T04:00:00Z,30.2513,-88.0778,25.88,1111122 
DISL,ioos:station:DISL:DISL:1,2013-06-02T04:30:00Z,30.2513,-88.0778,25.86,1111122 
DISL,ioos:station:DISL:DISL:1,2013-06-02T05:00:00Z,30.2513,-88.0778,25.88,1111122 
DISL,ioos:station:DISL:DISL:1,2013-06-02T05:30:00Z,30.2513,-88.0778,25.83,1111122 
DISL,ioos:station:DISL:DISL:1,2013-06-02T06:00:00Z,30.2513,-88.0778,25.74,1111122 
DISL,ioos:station:DISL:DISL:1,2013-06-02T06:30:00Z,30.2513,-88.0778,25.63,1111122 
DISL,ioos:station:DISL:DISL:1,2013-06-02T07:00:00Z,30.2513,-88.0778,25.58,1111122 
DISL,ioos:station:DISL:DISL:1,2013-06-02T07:30:00Z,30.2513,-88.0778,25.58,1111122 
DISL,ioos:station:DISL:DISL:1,2013-06-02T08:00:00Z,30.2513,-88.0778,25.49,1111122 
DISL,ioos:station:DISL:DISL:1,2013-06-02T08:30:00Z,30.2513,-88.0778,25.41,1111122 
DISL,ioos:station:DISL:DISL:1,2013-06-02T09:00:00Z,30.2513,-88.0778,25.38,1111122 
DISL,ioos:station:DISL:DISL:1,2013-06-02T09:30:00Z,30.2513,-88.0778,25.38,1111122 
DISL,ioos:station:DISL:DISL:1,2013-06-02T10:00:00Z,30.2513,-88.0778,25.33,1111122 
DISL,ioos:station:DISL:DISL:1,2013-06-02T10:30:00Z,30.2513,-88.0778,25.09,1111122 
DISL,ioos:station:DISL:DISL:1,2013-06-02T11:00:00Z,30.2513,-88.0778,25.02,1111122 
DISL,ioos:station:DISL:DISL:1,2013-06-02T11:30:00Z,30.2513,-88.0778,25.32,1111122 
DISL,ioos:station:DISL:DISL:1,2013-06-02T12:00:00Z,30.2513,-88.0778,25.86,1111122 
DISL,ioos:station:DISL:DISL:1,2013-06-02T12:30:00Z,30.2513,-88.0778,26.59,1111122 
DISL,ioos:station:DISL:DISL:1,2013-06-02T13:00:00Z,30.2513,-88.0778,25.82,1111122 
DISL,ioos:station:DISL:DISL:1,2013-06-02T13:30:00Z,30.2513,-88.0778,24.65,1111122 
DISL,ioos:station:DISL:DISL:1,2013-06-02T14:00:00Z,30.2513,-88.0778,25.01,1111122 
DISL,ioos:station:DISL:DISL:1,2013-06-02T14:30:00Z,30.2513,-88.0778,24.97,1111122 
DISL,ioos:station:DISL:DISL:1,2013-06-02T15:00:00Z,30.2513,-88.0778,25.23,1111122 
DISL,ioos:station:DISL:DISL:1,2013-06-02T15:30:00Z,30.2513,-88.0778,25.22,1111122 
DISL,ioos:station:DISL:DISL:1,2013-06-02T16:00:00Z,30.2513,-88.0778,25.78,1111122 
DISL,ioos:station:DISL:DISL:1,2013-06-02T16:30:00Z,30.2513,-88.0778,26.16,1111122 
DISL,ioos:station:DISL:DISL:1,2013-06-02T17:00:00Z,30.2513,-88.0778,26.65,1111122 
DISL,ioos:station:DISL:DISL:1,2013-06-02T17:30:00Z,30.2513,-88.0778,28.26,1111122 
DISL,ioos:station:DISL:DISL:1,2013-06-02T18:00:00Z,30.2513,-88.0778,28.24,1111122 
DISL,ioos:station:DISL:DISL:1,2013-06-02T18:30:00Z,30.2513,-88.0778,28.37,1111122 
DISL,ioos:station:DISL:DISL:1,2013-06-02T19:00:00Z,30.2513,-88.0778,27.69,1111122 
DISL,ioos:station:DISL:DISL:1,2013-06-02T19:30:00Z,30.2513,-88.0778,27.65,1111122 
DISL,ioos:station:DISL:DISL:1,2013-06-02T20:00:00Z,30.2513,-88.0778,27.9,1111122 
DISL,ioos:station:DISL:DISL:1,2013-06-02T20:30:00Z,30.2513,-88.0778,27.98,1111122 
DISL,ioos:station:DISL:DISL:1,2013-06-02T21:00:00Z,30.2513,-88.0778,27.66,1111122 
DISL,ioos:station:DISL:DISL:1,2013-06-02T21:30:00Z,30.2513,-88.0778,27.93,1111122 
DISL,ioos:station:DISL:DISL:1,2013-06-02T22:00:00Z,30.2513,-88.0778,27.64,1111122 
DISL,ioos:station:DISL:DISL:1,2013-06-02T22:30:00Z,30.2513,-88.0778,27.52,1111122 
DISL,ioos:station:DISL:DISL:1,2013-06-02T23:00:00Z,30.2513,-88.0778,27.33,1111122 
DISL,ioos:station:DISL:DISL:1,2013-06-02T23:30:00Z,30.2513,-88.0778,26.91,1111122 
DISL,ioos:station:DISL:DISL:1,2013-06-03T00:00:00Z,30.2513,-88.0778,26.96,1111122 
DISL,ioos:station:DISL:DISL:1,2013-06-03T00:30:00Z,30.2513,-88.0778,26.73,1111122 
DISL,ioos:station:DISL:DISL:1,2013-06-03T01:00:00Z,30.2513,-88.0778,26.52,1111122 
DISL,ioos:station:DISL:DISL:1,2013-06-03T01:30:00Z,30.2513,-88.0778,26.51,1111122 
DISL,ioos:station:DISL:DISL:1,2013-06-03T02:00:00Z,30.2513,-88.0778,26.4,1111122 
DISL,ioos:station:DISL:DISL:1,2013-06-03T02:30:00Z,30.2513,-88.0778,26.47,1111122 
DISL,ioos:station:DISL:DISL:1,2013-06-03T03:00:00Z,30.2513,-88.0778,26.48,1111122 
DISL,ioos:station:DISL:DISL:1,2013-06-03T03:30:00Z,30.2513,-88.0778,25.33,1111122 
DISL,ioos:station:DISL:DISL:1,2013-06-03T04:00:00Z,30.2513,-88.0778,25.25,1111122 
DISL,ioos:station:DISL:DISL:1,2013-06-03T04:30:00Z,30.2513,-88.0778,25.13,1111122 
DISL,ioos:station:DISL:DISL:1,2013-06-03T05:00:00Z,30.2513,-88.0778,26.04,1111122 
DISL,ioos:station:DISL:DISL:1,2013-06-03T05:30:00Z,30.2513,-88.0778,26.24,1111122 
DISL,ioos:station:DISL:DISL:1,2013-06-03T06:00:00Z,30.2513,-88.0778,24.89,1111122 
DISL,ioos:station:DISL:DISL:1,2013-06-03T06:30:00Z,30.2513,-88.0778,24.73,1111122 
DISL,ioos:station:DISL:DISL:1,2013-06-03T07:00:00Z,30.2513,-88.0778,24.93,1111122 
DISL,ioos:station:DISL:DISL:1,2013-06-03T07:30:00Z,30.2513,-88.0778,25.5,1111122 
DISL,ioos:station:DISL:DISL:1,2013-06-03T08:00:00Z,30.2513,-88.0778,25.19,1111122 
DISL,ioos:station:DISL:DISL:1,2013-06-03T08:30:00Z,30.2513,-88.0778,25.13,1111122 
DISL,ioos:station:DISL:DISL:1,2013-06-03T09:00:00Z,30.2513,-88.0778,25.11,1111122 
DISL,ioos:station:DISL:DISL:1,2013-06-03T09:30:00Z,30.2513,-88.0778,25.51,1111122 
DISL,ioos:station:DISL:DISL:1,2013-06-03T10:00:00Z,30.2513,-88.0778,25.65,1111122 
DISL,ioos:station:DISL:DISL:1,2013-06-03T10:30:00Z,30.2513,-88.0778,25.72,1111122 
DISL,ioos:station:DISL:DISL:1,2013-06-03T11:00:00Z,30.2513,-88.0778,25.75,1111122 
DISL,ioos:station:DISL:DISL:1,2013-06-03T11:30:00Z,30.2513,-88.0778,26.07,1111122 
DISL,ioos:station:DISL:DISL:1,2013-06-03T12:00:00Z,30.2513,-88.0778,26.6,1111122 
DISL,ioos:station:DISL:DISL:1,2013-06-03T12:30:00Z,30.2513,-88.0778,27.05,1111122 
DISL,ioos:station:DISL:DISL:1,2013-06-03T13:00:00Z,30.2513,-88.0778,26.75,1111122 
DISL,ioos:station:DISL:DISL:1,2013-06-03T13:30:00Z,30.2513,-88.0778,27.41,1111122 
DISL,ioos:station:DISL:DISL:1,2013-06-03T14:00:00Z,30.2513,-88.0778,27.58,1111122 
DISL,ioos:station:DISL:DISL:1,2013-06-03T14:30:00Z,30.2513,-88.0778,27.56,1111122 
DISL,ioos:station:DISL:DISL:1,2013-06-03T15:00:00Z,30.2513,-88.0778,27.62,1111122 
DISL,ioos:station:DISL:DISL:1,2013-06-03T15:30:00Z,30.2513,-88.0778,27.91,1111122 
DISL,ioos:station:DISL:DISL:1,2013-06-03T16:00:00Z,30.2513,-88.0778,27.66,1111122 
DISL,ioos:station:DISL:DISL:1,2013-06-03T16:30:00Z,30.2513,-88.0778,28.35,1111122 
DISL,ioos:station:DISL:DISL:1,2013-06-03T17:00:00Z,30.2513,-88.0778,27.75,1111122 
DISL,ioos:station:DISL:DISL:1,2013-06-03T17:30:00Z,30.2513,-88.0778,27.83,1111122 
DISL,ioos:station:DISL:DISL:1,2013-06-03T18:00:00Z,30.2513,-88.0778,28.2,1111122 
DISL,ioos:station:DISL:DISL:1,2013-06-03T18:30:00Z,30.2513,-88.0778,27.62,1111122 
DISL,ioos:station:DISL:DISL:1,2013-06-03T19:00:00Z,30.2513,-88.0778,28.03,1111122 
DISL,ioos:station:DISL:DISL:1,2013-06-03T19:30:00Z,30.2513,-88.0778,27.97,1111122 
DISL,ioos:station:DISL:DISL:1,2013-06-03T20:00:00Z,30.2513,-88.0778,28.2,1111122 
DISL,ioos:station:DISL:DISL:1,2013-06-03T20:30:00Z,30.2513,-88.0778,28.31,1111122 
DISL,ioos:station:DISL:DISL:1,2013-06-03T21:00:00Z,30.2513,-88.0778,28.44,1111122 
DISL,ioos:station:DISL:DISL:1,2013-06-03T21:30:00Z,30.2513,-88.0778,28.75,1111122 
DISL,ioos:station:DISL:DISL:1,2013-06-03T22:00:00Z,30.2513,-88.0778,28.17,1111122 
DISL,ioos:station:DISL:DISL:1,2013-06-03T22:30:00Z,30.2513,-88.0778,28.31,1111122 
DISL,ioos:station:DISL:DISL:1,2013-06-03T23:00:00Z,30.2513,-88.0778,28.2,1111122 
DISL,ioos:station:DISL:DISL:1,2013-06-03T23:30:00Z,30.2513,-88.0778,28.04,1111122 
DISL,ioos:station:DISL:DISL:1,2013-06-04T00:00:00Z,30.2513,-88.0778,28.04,1111122 
DISL,ioos:station:DISL:DISL:1,2013-06-04T00:30:00Z,30.2513,-88.0778,27.75,1111122 
DISL,ioos:station:DISL:DISL:1,2013-06-04T01:00:00Z,30.2513,-88.0778,27.58,1111122 
DISL,ioos:station:DISL:DISL:1,2013-06-04T01:30:00Z,30.2513,-88.0778,27.53,1111122 
DISL,ioos:station:DISL:DISL:1,2013-06-04T02:00:00Z,30.2513,-88.0778,27.49,1111122 
DISL,ioos:station:DISL:DISL:1,2013-06-04T02:30:00Z,30.2513,-88.0778,27.42,1111122 
DISL,ioos:station:DISL:DISL:1,2013-06-04T03:00:00Z,30.2513,-88.0778,27.31,1111122 
DISL,ioos:station:DISL:DISL:1,2013-06-04T03:30:00Z,30.2513,-88.0778,27.26,1111122 
DISL,ioos:station:DISL:DISL:1,2013-06-04T04:00:00Z,30.2513,-88.0778,27.15,1111122 
DISL,ioos:station:DISL:DISL:1,2013-06-04T04:30:00Z,30.2513,-88.0778,27.12,1111122 
DISL,ioos:station:DISL:DISL:1,2013-06-04T05:00:00Z,30.2513,-88.0778,27.01,1111122 
DISL,ioos:station:DISL:DISL:1,2013-06-04T05:30:00Z,30.2513,-88.0778,26.89,1111122 
DISL,ioos:station:DISL:DISL:1,2013-06-04T06:00:00Z,30.2513,-88.0778,26.75,1111122 
DISL,ioos:station:DISL:DISL:1,2013-06-04T06:30:00Z,30.2513,-88.0778,26.64,1111122 
DISL,ioos:station:DISL:DISL:1,2013-06-04T07:00:00Z,30.2513,-88.0778,26.52,1111122 
DISL,ioos:station:DISL:DISL:1,2013-06-04T07:30:00Z,30.2513,-88.0778,26.43,1111122 
DISL,ioos:station:DISL:DISL:1,2013-06-04T08:00:00Z,30.2513,-88.0778,26.31,1111122 
DISL,ioos:station:DISL:DISL:1,2013-06-04T08:30:00Z,30.2513,-88.0778,26.36,1111122 
DISL,ioos:station:DISL:DISL:1,2013-06-04T09:00:00Z,30.2513,-88.0778,26.45,1111122 
DISL,ioos:station:DISL:DISL:1,2013-06-04T09:30:00Z,30.2513,-88.0778,26.29,1111122 
DISL,ioos:station:DISL:DISL:1,2013-06-04T10:00:00Z,30.2513,-88.0778,26.37,1111122 
DISL,ioos:station:DISL:DISL:1,2013-06-04T10:30:00Z,30.2513,-88.0778,26.44,1111122 
DISL,ioos:station:DISL:DISL:1,2013-06-04T11:00:00Z,30.2513,-88.0778,26.48,1111122 
DISL,ioos:station:DISL:DISL:1,2013-06-04T11:30:00Z,30.2513,-88.0778,26.25,1111122 
DISL,ioos:station:DISL:DISL:1,2013-06-04T12:00:00Z,30.2513,-88.0778,26.95,1111122 
DISL,ioos:station:DISL:DISL:1,2013-06-04T12:30:00Z,30.2513,-88.0778,27.13,1111122 
DISL,ioos:station:DISL:DISL:1,2013-06-04T13:00:00Z,30.2513,-88.0778,27.01,1111122 
DISL,ioos:station:DISL:DISL:1,2013-06-04T13:30:00Z,30.2513,-88.0778,27.07,1111122 
DISL,ioos:station:DISL:DISL:1,2013-06-04T14:00:00Z,30.2513,-88.0778,27.04,1111122 
DISL,ioos:station:DISL:DISL:1,2013-06-04T14:30:00Z,30.2513,-88.0778,26.86,1111122 
DISL,ioos:station:DISL:DISL:1,2013-06-04T15:00:00Z,30.2513,-88.0778,27.01,1111122 
DISL,ioos:station:DISL:DISL:1,2013-06-04T15:30:00Z,30.2513,-88.0778,27.55,1111122 
DISL,ioos:station:DISL:DISL:1,2013-06-04T16:00:00Z,30.2513,-88.0778,27.63,1111122 
DISL,ioos:station:DISL:DISL:1,2013-06-04T16:30:00Z,30.2513,-88.0778,27.48,1111122 
DISL,ioos:station:DISL:DISL:1,2013-06-04T17:00:00Z,30.2513,-88.0778,27.92,1111122 
DISL,ioos:station:DISL:DISL:1,2013-06-04T17:30:00Z,30.2513,-88.0778,27.76,1111122 
DISL,ioos:station:DISL:DISL:1,2013-06-04T18:00:00Z,30.2513,-88.0778,27.55,1111122 
DISL,ioos:station:DISL:DISL:1,2013-06-04T18:30:00Z,30.2513,-88.0778,27.87,1111122 
DISL,ioos:station:DISL:DISL:1,2013-06-04T19:00:00Z,30.2513,-88.0778,28.31,1111122 
DISL,ioos:station:DISL:DISL:1,2013-06-04T19:30:00Z,30.2513,-88.0778,28.18,1111122 
DISL,ioos:station:DISL:DISL:1,2013-06-04T20:00:00Z,30.2513,-88.0778,28.29,1111122 
DISL,ioos:station:DISL:DISL:1,2013-06-04T20:30:00Z,30.2513,-88.0778,28.18,1111122 
DISL,ioos:station:DISL:DISL:1,2013-06-04T21:00:00Z,30.2513,-88.0778,28.28,1111122 
DISL,ioos:station:DISL:DISL:1,2013-06-04T21:30:00Z,30.2513,-88.0778,28.3,1111122 
DISL,ioos:station:DISL:DISL:1,2013-06-04T22:00:00Z,30.2513,-88.0778,27.84,1111122 
DISL,ioos:station:DISL:DISL:1,2013-06-04T22:30:00Z,30.2513,-88.0778,27.91,1111122 
DISL,ioos:station:DISL:DISL:1,2013-06-04T23:00:00Z,30.2513,-88.0778,27.64,1111122 
DISL,ioos:station:DISL:DISL:1,2013-06-04T23:30:00Z,30.2513,-88.0778,27.55,1111122 
DISL,ioos:station:DISL:DISL:1,2013-06-05T00:00:00Z,30.2513,-88.0778,27.57,1111122 
DISL,ioos:station:DISL:DISL:1,2013-06-05T00:30:00Z,30.2513,-88.0778,27.38,1111122 
DISL,ioos:station:DISL:DISL:1,2013-06-05T01:00:00Z,30.2513,-88.0778,27.15,1111122 
DISL,ioos:station:DISL:DISL:1,2013-06-05T01:30:00Z,30.2513,-88.0778,27.16,1111122 
DISL,ioos:station:DISL:DISL:1,2013-06-05T02:00:00Z,30.2513,-88.0778,27.02,1111122 
DISL,ioos:station:DISL:DISL:1,2013-06-05T02:30:00Z,30.2513,-88.0778,27.01,1111122 
DISL,ioos:station:DISL:DISL:1,2013-06-05T03:00:00Z,30.2513,-88.0778,26.91,1111122 
DISL,ioos:station:DISL:DISL:1,2013-06-05T03:30:00Z,30.2513,-88.0778,26.9,1111122 
DISL,ioos:station:DISL:DISL:1,2013-06-05T04:00:00Z,30.2513,-88.0778,26.78,1111122 
DISL,ioos:station:DISL:DISL:1,2013-06-05T04:30:00Z,30.2513,-88.0778,26.85,1111122 
DISL,ioos:station:DISL:DISL:1,2013-06-05T05:00:00Z,30.2513,-88.0778,26.75,1111122 
DISL,ioos:station:DISL:DISL:1,2013-06-05T05:30:00Z,30.2513,-88.0778,26.52,1111122 
DISL,ioos:station:DISL:DISL:1,2013-06-05T06:00:00Z,30.2513,-88.0778,26.43,1111122 
DISL,ioos:station:DISL:DISL:1,2013-06-05T06:30:00Z,30.2513,-88.0778,26.35,1111122 
DISL,ioos:station:DISL:DISL:1,2013-06-05T07:00:00Z,30.2513,-88.0778,26.32,1111122 
DISL,ioos:station:DISL:DISL:1,2013-06-05T07:30:00Z,30.2513,-88.0778,26.12,1111122 
DISL,ioos:station:DISL:DISL:1,2013-06-05T08:00:00Z,30.2513,-88.0778,26.15,1111122 
DISL,ioos:station:DISL:DISL:1,2013-06-05T08:30:00Z,30.2513,-88.0778,26.21,1111122 
DISL,ioos:station:DISL:DISL:1,2013-06-05T09:00:00Z,30.2513,-88.0778,26.28,1111122 
DISL,ioos:station:DISL:DISL:1,2013-06-05T09:30:00Z,30.2513,-88.0778,26.25,1111122 
DISL,ioos:station:DISL:DISL:1,2013-06-05T10:00:00Z,30.2513,-88.0778,26.25,1111122 
DISL,ioos:station:DISL:DISL:1,2013-06-05T10:30:00Z,30.2513,-88.0778,26.28,1111122 
DISL,ioos:station:DISL:DISL:1,2013-06-05T11:00:00Z,30.2513,-88.0778,26.44,1111122 
DISL,ioos:station:DISL:DISL:1,2013-06-05T11:30:00Z,30.2513,-88.0778,26.59,1111122 
DISL,ioos:station:DISL:DISL:1,2013-06-05T12:00:00Z,30.2513,-88.0778,26.63,1111122 
DISL,ioos:station:DISL:DISL:1,2013-06-05T12:30:00Z,30.2513,-88.0778,26.66,1111122 
DISL,ioos:station:DISL:DISL:1,2013-06-05T13:00:00Z,30.2513,-88.0778,26.71,1111122 
DISL,ioos:station:DISL:DISL:1,2013-06-05T13:30:00Z,30.2513,-88.0778,26.56,1111122 
DISL,ioos:station:DISL:DISL:1,2013-06-05T14:00:00Z,30.2513,-88.0778,27.05,1111122 
DISL,ioos:station:DISL:DISL:1,2013-06-05T14:30:00Z,30.2513,-88.0778,27.22,1111122 
DISL,ioos:station:DISL:DISL:1,2013-06-05T15:00:00Z,30.2513,-88.0778,27.59,1111122 
DISL,ioos:station:DISL:DISL:1,2013-06-05T15:30:00Z,30.2513,-88.0778,27.37,1111122 
DISL,ioos:station:DISL:DISL:1,2013-06-05T16:00:00Z,30.2513,-88.0778,27.45,1111122 
DISL,ioos:station:DISL:DISL:1,2013-06-05T16:30:00Z,30.2513,-88.0778,27.59,1111122 
DISL,ioos:station:DISL:DISL:1,2013-06-05T17:00:00Z,30.2513,-88.0778,27.7,1111122 
DISL,ioos:station:DISL:DISL:1,2013-06-05T17:30:00Z,30.2513,-88.0778,27.92,1111122 
DISL,ioos:station:DISL:DISL:1,2013-06-05T18:00:00Z,30.2513,-88.0778,27.45,1111122 
DISL,ioos:station:DISL:DISL:1,2013-06-05T18:30:00Z,30.2513,-88.0778,27.65,1111122 
DISL,ioos:station:DISL:DISL:1,2013-06-05T19:00:00Z,30.2513,-88.0778,27.86,1111122 
DISL,ioos:station:DISL:DISL:1,2013-06-05T19:30:00Z,30.2513,-88.0778,27.85,1111122 
DISL,ioos:station:DISL:DISL:1,2013-06-05T20:00:00Z,30.2513,-88.0778,27.65,1111122 
DISL,ioos:station:DISL:DISL:1,2013-06-05T20:30:00Z,30.2513,-88.0778,27.69,1111122 
DISL,ioos:station:DISL:DISL:1,2013-06-05T21:00:00Z,30.2513,-88.0778,28.05,1111122 
DISL,ioos:station:DISL:DISL:1,2013-06-05T21:30:00Z,30.2513,-88.0778,28.22,1111122 
DISL,ioos:station:DISL:DISL:1,2013-06-05T22:00:00Z,30.2513,-88.0778,27.79,1111122 
DISL,ioos:station:DISL:DISL:1,2013-06-05T22:30:00Z,30.2513,-88.0778,27.73,1111122 
DISL,ioos:station:DISL:DISL:1,2013-06-05T23:00:00Z,30.2513,-88.0778,27.39,1111122 
DISL,ioos:station:DISL:DISL:1,2013-06-05T23:30:00Z,30.2513,-88.0778,27.45,1111122 
DISL,ioos:station:DISL:DISL:1,2013-06-06T00:00:00Z,30.2513,-88.0778,27.19,1111122 
DISL,ioos:station:DISL:DISL:1,2013-06-06T00:30:00Z,30.2513,-88.0778,27.05,1111122 
DISL,ioos:station:DISL:DISL:1,2013-06-06T01:00:00Z,30.2513,-88.0778,26.94,1111122 
DISL,ioos:station:DISL:DISL:1,2013-06-06T01:30:00Z,30.2513,-88.0778,26.67,1111122 
DISL,ioos:station:DISL:DISL:1,2013-06-06T02:00:00Z,30.2513,-88.0778,26.67,1111122 
DISL,ioos:station:DISL:DISL:1,2013-06-06T02:30:00Z,30.2513,-88.0778,26.85,1111122 
DISL,ioos:station:DISL:DISL:1,2013-06-06T03:00:00Z,30.2513,-88.0778,26.9,1111122 
DISL,ioos:station:DISL:DISL:1,2013-06-06T03:30:00Z,30.2513,-88.0778,26.96,1111122 
DISL,ioos:station:DISL:DISL:1,2013-06-06T04:00:00Z,30.2513,-88.0778,26.91,1111122 
DISL,ioos:station:DISL:DISL:1,2013-06-06T04:30:00Z,30.2513,-88.0778,24.25,1111122 
DISL,ioos:station:DISL:DISL:1,2013-06-06T05:00:00Z,30.2513,-88.0778,24.56,1111122 
DISL,ioos:station:DISL:DISL:1,2013-06-06T05:30:00Z,30.2513,-88.0778,25.53,1111122 
DISL,ioos:station:DISL:DISL:1,2013-06-06T06:00:00Z,30.2513,-88.0778,25.5,1111122 
DISL,ioos:station:DISL:DISL:1,2013-06-06T06:30:00Z,30.2513,-88.0778,25.28,1111122 
DISL,ioos:station:DISL:DISL:1,2013-06-06T07:00:00Z,30.2513,-88.0778,25.2,1111122 
DISL,ioos:station:DISL:DISL:1,2013-06-06T07:30:00Z,30.2513,-88.0778,24.97,1111122 
DISL,ioos:station:DISL:DISL:1,2013-06-06T08:00:00Z,30.2513,-88.0778,25.62,1111122 
DISL,ioos:station:DISL:DISL:1,2013-06-06T08:30:00Z,30.2513,-88.0778,24.91,1111122 
DISL,ioos:station:DISL:DISL:1,2013-06-06T09:00:00Z,30.2513,-88.0778,24.84,1111122 
DISL,ioos:station:DISL:DISL:1,2013-06-06T09:30:00Z,30.2513,-88.0778,24.95,1111122 
DISL,ioos:station:DISL:DISL:1,2013-06-06T10:00:00Z,30.2513,-88.0778,24.3,1111122 
DISL,ioos:station:DISL:DISL:1,2013-06-06T10:30:00Z,30.2513,-88.0778,24.28,1111122 
DISL,ioos:station:DISL:DISL:1,2013-06-06T11:00:00Z,30.2513,-88.0778,24.2,1111122 
DISL,ioos:station:DISL:DISL:1,2013-06-06T11:30:00Z,30.2513,-88.0778,24.76,1111122 
DISL,ioos:station:DISL:DISL:1,2013-06-06T12:00:00Z,30.2513,-88.0778,23.68,1111122 
DISL,ioos:station:DISL:DISL:1,2013-06-06T12:30:00Z,30.2513,-88.0778,23.85,1111122 
DISL,ioos:station:DISL:DISL:1,2013-06-06T13:00:00Z,30.2513,-88.0778,23.65,1111122 
DISL,ioos:station:DISL:DISL:1,2013-06-06T13:30:00Z,30.2513,-88.0778,23.66,1111122 
DISL,ioos:station:DISL:DISL:1,2013-06-06T14:00:00Z,30.2513,-88.0778,23.86,1111122 
DISL,ioos:station:DISL:DISL:1,2013-06-06T14:30:00Z,30.2513,-88.0778,23.84,1111122 
DISL,ioos:station:DISL:DISL:1,2013-06-06T15:00:00Z,30.2513,-88.0778,23.73,1111122 
DISL,ioos:station:DISL:DISL:1,2013-06-06T15:30:00Z,30.2513,-88.0778,24.28,1111122 
DISL,ioos:station:DISL:DISL:1,2013-06-06T16:00:00Z,30.2513,-88.0778,24.57,1111122 
DISL,ioos:station:DISL:DISL:1,2013-06-06T16:30:00Z,30.2513,-88.0778,24.89,1111122 
DISL,ioos:station:DISL:DISL:1,2013-06-06T17:00:00Z,30.2513,-88.0778,25.11,1111122 
DISL,ioos:station:DISL:DISL:1,2013-06-06T17:30:00Z,30.2513,-88.0778,25.42,1111122 
DISL,ioos:station:DISL:DISL:1,2013-06-06T18:00:00Z,30.2513,-88.0778,25.79,1111122 
DISL,ioos:station:DISL:DISL:1,2013-06-06T18:30:00Z,30.2513,-88.0778,26.26,1111122 
DISL,ioos:station:DISL:DISL:1,2013-06-06T19:00:00Z,30.2513,-88.0778,26.93,1111122 
DISL,ioos:station:DISL:DISL:1,2013-06-06T19:30:00Z,30.2513,-88.0778,27.78,1111122 
DISL,ioos:station:DISL:DISL:1,2013-06-06T20:00:00Z,30.2513,-88.0778,28.17,1111122 
DISL,ioos:station:DISL:DISL:1,2013-06-06T20:30:00Z,30.2513,-88.0778,28.15,1111122 
DISL,ioos:station:DISL:DISL:1,2013-06-06T21:00:00Z,30.2513,-88.0778,28.28,1111122 
DISL,ioos:station:DISL:DISL:1,2013-06-06T21:30:00Z,30.2513,-88.0778,28.59,1111122 
DISL,ioos:station:DISL:DISL:1,2013-06-06T22:00:00Z,30.2513,-88.0778,28.69,1111122 
DISL,ioos:station:DISL:DISL:1,2013-06-06T22:30:00Z,30.2513,-88.0778,28.97,1111122 
DISL,ioos:station:DISL:DISL:1,2013-06-06T23:00:00Z,30.2513,-88.0778,28.95,1111122 
DISL,ioos:station:DISL:DISL:1,2013-06-06T23:30:00Z,30.2513,-88.0778,27.5,1111122 